Time,TemperatureF,DewpointF,PressureIn,WindDirection,WindDirectionDegrees,WindSpeedMPH,WindSpeedGustMPH,Humidity,HourlyPrecipIn,Conditions,Clouds,dailyrainin,SolarRadiationWatts/m^2,SoftwareType,DateUTC
2013-02-12 00:00:00,33.0,33.0,-100.00,SE,133,1.0,2.0,103,-99.99,,,-99.99,-0.200000,,2013-02-12 08:00:00,
2013-02-12 00:52:00,33.0,33.0,-100.00,SE,133,1.0,2.0,103,-99.99,,,-99.99,-0.200000,,2013-02-12 08:52:00,
2013-02-12 01:00:00,33.0,33.0,-100.00,SSW,206,2.0,2.0,103,-99.99,,,0.00,-0.200000,,2013-02-12 09:00:00,
2013-02-12 01:52:00,33.0,33.0,-100.00,SSW,206,2.0,2.0,103,-99.99,,,0.00,-0.200000,,2013-02-12 09:52:00,
2013-02-12 02:00:00,32.0,32.0,-100.00,SSW,192,3.0,5.0,103,-99.99,,,0.00,-0.200000,,2013-02-12 10:00:00,
2013-02-12 02:52:00,32.0,32.0,-100.00,SSW,192,3.0,5.0,103,-99.99,,,0.00,-0.200000,,2013-02-12 10:52:00,
2013-02-12 03:00:00,32.0,32.0,-100.00,SSW,204,2.0,3.0,103,-99.99,,,0.00,-0.200000,,2013-02-12 11:00:00,
2013-02-12 03:52:00,32.0,32.0,-100.00,SSW,204,2.0,3.0,103,-99.99,,,0.00,-0.200000,,2013-02-12 11:52:00,
2013-02-12 04:00:00,33.0,33.0,-100.00,South,187,1.0,2.0,103,-99.99,,,0.00,-0.200000,,2013-02-12 12:00:00,
2013-02-12 04:52:00,33.0,33.0,-100.00,South,187,1.0,2.0,103,-99.99,,,0.00,-0.200000,,2013-02-12 12:52:00,
2013-02-12 05:00:00,33.0,33.0,-100.00,South,184,1.0,2.0,103,-99.99,,,0.00,-0.200000,,2013-02-12 13:00:00,
2013-02-12 05:52:00,33.0,33.0,-100.00,South,184,1.0,2.0,103,-99.99,,,0.00,-0.200000,,2013-02-12 13:52:00,
2013-02-12 06:00:00,33.0,33.0,-100.00,SSE,163,2.0,3.0,103,-99.99,,,0.00,-0.200000,,2013-02-12 14:00:00,
2013-02-12 06:52:00,33.0,33.0,-100.00,SSE,163,2.0,3.0,103,-99.99,,,0.00,-0.200000,,2013-02-12 14:52:00,
2013-02-12 07:00:00,32.0,32.0,-100.00,SSW,198,3.0,4.0,103,-99.99,,,0.00,-2.900000,,2013-02-12 15:00:00,
2013-02-12 07:52:00,32.0,32.0,-100.00,SSW,198,3.0,4.0,103,-99.99,,,0.00,-2.900000,,2013-02-12 15:52:00,
2013-02-12 08:00:00,32.0,32.0,-100.00,South,177,3.0,3.0,103,-99.99,,,-99.99,1.500000,,2013-02-12 16:00:00,
2013-02-12 08:52:00,32.0,32.0,-100.00,South,177,3.0,3.0,103,-99.99,,,-99.99,1.500000,,2013-02-12 16:52:00,
2013-02-12 09:00:00,33.0,33.0,-100.00,SSW,201,2.0,3.0,103,-99.99,,,0.00,22.600000,,2013-02-12 17:00:00,
2013-02-12 09:52:00,33.0,33.0,-100.00,SSW,201,2.0,3.0,103,-99.99,,,0.00,22.600000,,2013-02-12 17:52:00,
2013-02-12 10:00:00,33.0,33.0,-100.00,SSW,199,2.0,2.0,103,-99.99,,,0.00,38.900002,,2013-02-12 18:00:00,
2013-02-12 10:52:00,33.0,33.0,-100.00,SSW,199,2.0,2.0,103,-99.99,,,0.00,38.900002,,2013-02-12 18:52:00,
2013-02-12 11:00:00,33.0,33.0,-100.00,SSW,210,2.0,3.0,103,-99.99,,,0.01,67.900002,,2013-02-12 19:00:00,
2013-02-12 11:52:00,33.0,33.0,-100.00,SSW,210,2.0,3.0,103,-99.99,,,0.01,67.900002,,2013-02-12 19:52:00,
2013-02-12 12:00:00,34.0,34.0,-100.00,SW,222,2.0,3.0,103,-99.99,,,0.00,62.200001,,2013-02-12 20:00:00,
2013-02-12 12:52:00,34.0,34.0,-100.00,SW,222,2.0,3.0,103,-99.99,,,0.00,62.200001,,2013-02-12 20:52:00,
2013-02-12 13:00:00,34.0,34.0,-100.00,South,169,2.0,3.0,103,-99.99,,,0.01,55.599998,,2013-02-12 21:00:00,
2013-02-12 13:52:00,34.0,34.0,-100.00,South,169,2.0,3.0,103,-99.99,,,0.01,55.599998,,2013-02-12 21:52:00,
2013-02-12 14:00:00,34.0,34.0,-100.00,SW,235,2.0,3.0,103,-99.99,,,0.01,41.099998,,2013-02-12 22:00:00,
2013-02-12 14:52:00,34.0,34.0,-100.00,SW,235,2.0,3.0,103,-99.99,,,0.01,41.099998,,2013-02-12 22:52:00,
2013-02-12 15:00:00,34.0,34.0,-100.00,SSW,193,1.0,3.0,103,-99.99,,,0.01,42.900002,,2013-02-12 23:00:00,
2013-02-12 15:52:00,34.0,34.0,-100.00,SSW,193,1.0,3.0,103,-99.99,,,0.01,42.900002,,2013-02-12 23:52:00,
2013-02-12 16:00:00,34.0,34.0,-100.00,South,172,3.0,5.0,103,-99.99,,,0.01,34.500000,,2013-02-13 00:00:00,
2013-02-12 16:52:00,34.0,34.0,-100.00,South,172,3.0,5.0,103,-99.99,,,0.01,34.500000,,2013-02-13 00:52:00,
2013-02-12 17:00:00,34.0,34.0,-100.00,SSW,212,3.0,4.0,103,-99.99,,,0.00,14.700000,,2013-02-13 01:00:00,
2013-02-12 17:52:00,34.0,34.0,-100.00,SSW,212,3.0,4.0,103,-99.99,,,0.00,14.700000,,2013-02-13 01:52:00,
2013-02-12 18:00:00,34.0,34.0,-100.00,East,100,2.0,3.0,103,-99.99,,,0.01,1.500000,,2013-02-13 02:00:00,
2013-02-12 18:52:00,34.0,34.0,-100.00,East,100,2.0,3.0,103,-99.99,,,0.01,1.500000,,2013-02-13 02:52:00,
2013-02-12 19:00:00,34.0,34.0,-100.00,SE,146,2.0,3.0,103,-99.99,,,0.01,-0.200000,,2013-02-13 03:00:00,
2013-02-12 19:52:00,34.0,34.0,-100.00,SE,146,2.0,3.0,103,-99.99,,,0.01,-0.200000,,2013-02-13 03:52:00,
2013-02-12 20:00:00,34.0,34.0,-100.00,SW,222,2.0,3.0,103,-99.99,,,0.00,-0.200000,,2013-02-13 04:00:00,
2013-02-12 20:52:00,34.0,34.0,-100.00,SW,222,2.0,3.0,103,-99.99,,,0.00,-0.200000,,2013-02-13 04:52:00,
2013-02-12 21:00:00,34.0,34.0,-100.00,South,171,2.0,4.0,103,-99.99,,,0.01,-0.200000,,2013-02-13 05:00:00,
2013-02-12 21:52:00,34.0,34.0,-100.00,South,171,2.0,4.0,103,-99.99,,,0.01,-0.200000,,2013-02-13 05:52:00,
2013-02-12 22:00:00,34.0,34.0,-100.00,SW,220,2.0,5.0,103,-99.99,,,0.01,-0.200000,,2013-02-13 06:00:00,
2013-02-12 22:52:00,34.0,34.0,-100.00,SW,220,2.0,5.0,103,-99.99,,,0.01,-0.200000,,2013-02-13 06:52:00,
2013-02-12 23:00:00,34.0,34.0,-100.00,SSW,200,2.0,3.0,103,-99.99,,,0.01,-0.200000,,2013-02-13 07:00:00,
2013-02-12 23:52:00,34.0,34.0,-100.00,SSW,200,2.0,3.0,103,-99.99,,,0.01,-0.200000,,2013-02-13 07:52:00,